LEMUR-2-ROMACOSTE (43048 NORAD) Tracking and Keplerian Element Data

This shows tracking and keplerian element data for the satellite.

Feedback or suggestion? Click here.




ElementValue
Catalog43048
NameLEMUR-2-ROMACOSTE
Epoch Orbit1072
Epoch Day45.47235369
Epoch Year2018
RAAN278.9016
Inclination51.6393
Eccentricity0.0003218
Argument of Perigee195.2252
Mean Anonmoly164.8635
Mean Motion15.38275584
Decay Rate3.875E-05
L11 43048U 17071M 18045.47235369 .00003875 00000-0 11137-3 0 9991
L22 43048 51.6393 278.9016 0003218 195.2252 164.8635 15.38275584 10722

Live tracking and technical data element details for LEMUR-2-ROMACOSTE (NORAD 43048). LEMUR-2-ROMACOSTE can be tracked NOW for your location showing map with azimuth and elevation plus other details from your city location.

Track the satellite on the map from your city or location and see movement details for azimuth, elevation, latitude, longitude, range, height, and movement on the map or in text.







IsCatalogInMostPopularTable: catalog: 43048, numindb: 156
Update: records affected: 1



GetName: 43048 LEMUR-2-ROMACOSTE

Hit Count: updated at: Wed, 14 Nov 2018 11:10:59 GMT